Location: Bastrop State Park
(30.1090°N, 97.2819°W)
Time: 11:35:17
(UTC-05:00)

ISS - Visible Passes

Search period start: 01 April 2015 00:00
Search period end: 11 April 2015 00:00
Orbit: 396 x 405 km, 51.6° (Epoch: 01 April)

Date Brightness Start Highest point End Pass type
(mag) Time Alt. Az. Time Alt. Az. Time Alt. Az.
01 Apr -3.1 05:59:47 22° NNW 06:01:41 66° NE 06:04:53 10° SE visible
01 Apr -2.2 20:57:11 10° SSW 20:59:23 28° SSE 20:59:23 28° SSE visible
02 Apr -0.6 05:09:48 18° E 05:09:48 18° E 05:10:59 10° ESE visible
02 Apr -1.6 06:42:28 11° W 06:44:22 16° SW 06:46:25 10° SSW visible
02 Apr -1.6 21:39:52 10° WSW 21:42:29 32° WNW 21:42:29 32° WNW visible
03 Apr -1.5 05:52:46 20° S 05:52:46 20° S 05:53:58 10° SSE visible
03 Apr -3.3 20:46:02 10° SW 20:49:17 83° NW 20:52:33 10° NE visible
04 Apr -0.3 21:30:15 10° WNW 21:32:17 15° NW 21:34:15 10° N visible
05 Apr -1.3 20:35:35 10° WSW 20:38:29 29° NW 20:41:23 10° NNE visible
07 Apr -0.3 20:25:59 10° WNW 20:27:44 13° NW 20:29:24 10° N visible
